Onweer radar Meer informatie blitzortung!


Regen radar Meer informatie rain snow radar


Bezoek onze andere website:

Template documentation
and downloads

And another site



Het weer levert geen direct gevaar op.    Er zijn geen waarschuwingen afgegeven.

Select another period ( hide this area )

Eenheden Periode Custom range Directly to
Metrisch Engels Beide
Dagelijkse Wekelijkse Maandelijkse Jaarlijkse
use both date-selectors for a custom range
previous Dag
With this date

WeatherUnderground graphs for this period ( click here )


Dagelijkse Samenvatting Zaterdag 18 januari 2020
Tijd Temp. ( °C ) Dew pt. ( °C ) Wind ( km/h ) van Windvlaag ( km/h ) Luchtdruk ( hPa ) Humid.( % ) Rainrate ( cm )
Hoog7,6 0,1 17,7 ONO ( 605/1660 ) 22,5 1032,1 70 0,30
Gemiddeld4,6 -1,5 5,9 ZO #66/282 10,3 1026,2 65 0,60
Laag2,2 -2,9 -   0,0 1021,2 53 -
Dagelijkse Tabular details for Zaterdag 18 januari 2020
Tijd Temp. ( °C ) Dew pt. ( °C ) Wind ( km/h ) van Windvlaag ( km/h ) Luchtdruk ( hPa ) Humid.( % ) Rainrate ( cm )
00:05 5,2 -0,6 7,9 ONO 14,5 1021,6 66 -
00:10 5,2 -0,6 6,4 ONO 16,1 1021,6 66 -
00:15 5,2 -0,6 7,9 ONO 14,5 1021,2 66 -
00:20 5,2 -0,6 7,9 Oosten 14,5 1021,6 66 -
00:25 5,1 -0,7 11,1 NO 11,3 1021,6 66 -
00:30 5,1 -0,7 3,2 ONO 14,5 1021,6 66 -
00:35 5,0 -1,0 7,9 Oosten 14,5 1021,6 65 -
00:40 4,9 -1,1 13,0 ONO 16,1 1021,6 65 -
00:45 4,9 -1,1 6,4 ONO 9,7 1021,6 65 -
00:50 4,9 -1,1 9,7 Oosten 12,9 1021,9 65 -
00:55 4,8 -1,2 11,1 ONO 16,1 1021,9 65 -
01:00 4,8 -1,2 4,7 Oosten 12,9 1021,9 65 -
01:05 4,8 -1,2 11,1 ONO 14,5 1021,9 65 -
01:10 4,8 -1,2 4,7 Oosten 11,3 1021,9 65 -
01:15 4,8 -1,2 3,2 Oosten 12,9 1021,9 65 -
01:20 4,8 -1,2 9,7 ONO 14,5 1021,9 65 -
01:25 4,7 -1,3 6,4 Oosten 16,1 1022,2 65 -
01:30 4,7 -1,3 11,1 NO 12,9 1022,2 65 -
01:35 4,7 -1,3 13,0 ONO 12,9 1021,9 65 -
01:40 4,6 -1,4 13,0 ONO 17,7 1022,2 65 -
01:45 4,6 -1,4 17,7 ONO 17,7 1022,2 65 -
01:50 4,6 -1,4 7,9 ONO 16,1 1022,2 65 -
01:55 4,6 -1,4 7,9 ONO 12,9 1022,2 65 -
02:00 4,6 -1,4 7,9 ONO 19,3 1022,2 65 -
02:05 4,5 -1,5 13,0 ONO 12,9 1022,2 65 -
02:10 4,5 -1,5 9,7 ONO 16,1 1022,2 65 -
02:15 4,4 -1,6 9,7 ONO 14,5 1022,2 65 -
02:20 4,4 -1,6 3,2 NO 14,5 1022,2 65 -
02:26 4,3 -1,7 14,3 ONO 17,7 1022,2 65 -
02:31 4,3 -1,5 9,7 ONO 17,7 1022,2 66 -
02:36 4,3 -1,5 7,9 ONO 17,7 1022,2 66 -
02:41 4,3 -1,5 6,4 ONO 12,9 1022,2 66 -
02:46 4,2 -1,6 13,0 ONO 16,1 1022,6 66 -
02:51 4,2 -1,6 11,1 Oosten 19,3 1022,6 66 -
02:56 4,2 -1,6 13,0 Oosten 17,7 1022,6 66 -
03:01 4,2 -1,6 14,3 ONO 20,9 1022,6 66 -
03:06 4,1 -1,5 7,9 ONO 16,1 1022,6 67 -
03:11 4,1 -1,7 11,1 Oosten 17,7 1022,6 66 -
03:16 4,0 -1,6 11,1 ONO 11,3 1022,6 67 -
03:21 4,0 -1,6 3,2 NO 17,7 1022,6 67 -
03:26 3,9 -1,7 6,4 ONO 9,7 1022,6 67 -
03:31 3,9 -1,7 14,3 ONO 14,5 1022,6 67 -
03:36 3,9 -1,7 7,9 NO 12,9 1022,6 67 -
03:41 3,9 -1,7 7,9 ONO 16,1 1022,9 67 -
03:46 3,8 -1,8 7,9 Oosten 17,7 1022,9 67 -
03:51 3,8 -1,8 6,4 Oosten 16,1 1022,9 67 -
03:56 3,8 -1,8 7,9 ONO 8,0 1022,9 67 -
04:01 3,8 -1,8 9,7 ONO 9,7 1022,9 67 -
04:06 3,8 -1,8 11,1 ONO 14,5 1022,9 67 -
04:11 3,8 -1,8 6,4 NO 16,1 1022,6 67 -
04:16 3,8 -1,8 9,7 NO 11,3 1022,9 67 -
04:21 3,9 -1,7 13,0 ONO 17,7 1022,9 67 -
04:26 3,9 -1,7 6,4 Oosten 11,3 1022,9 67 -
04:31 3,9 -1,7 7,9 ONO 12,9 1022,9 67 -
04:36 3,9 -1,7 7,9 ONO 9,7 1022,9 67 -
04:41 3,9 -1,5 3,2 ONO 12,9 1022,9 68 -
04:46 4,0 -1,6 11,1 ONO 11,3 1022,9 67 -
04:51 4,1 -1,5 7,9 ONO 16,1 1022,9 67 -
04:56 4,1 -1,5 6,4 ONO 12,9 1022,9 67 -
05:01 4,2 -1,4 9,7 ONO 12,9 1022,9 67 -
05:07 4,2 -1,4 14,3 ONO 14,5 1022,9 67 -
05:12 4,2 -1,4 6,4 ONO 11,3 1022,9 67 -
05:17 4,3 -1,3 14,3 Oosten 14,5 1022,9 67 -
05:22 4,3 -1,3 7,9 NO 12,9 1022,9 67 -
05:27 4,3 -1,3 7,9 ONO 12,9 1022,9 67 0,30
05:32 4,4 -1,0 11,1 NO 14,5 1023,2 68 0,30
05:37 4,3 -1,1 9,7 Oosten 14,5 1023,2 68 0,30
05:42 4,4 -1,0 11,1 ONO 14,5 1023,2 68 0,30
05:47 4,4 -1,0 6,4 ZO 12,9 1023,2 68 0,30
05:52 4,4 -1,2 7,9 NO 12,9 1023,2 67 0,30
05:57 4,4 -1,2 6,4 ZZO 11,3 1023,2 67 0,30
06:02 4,4 -1,2 9,7 ONO 17,7 1023,2 67 0,30
06:07 4,4 -1,2 6,4 ONO 11,3 1023,2 67 0,30
06:12 4,3 -1,3 11,1 ONO 12,9 1023,2 67 0,30
06:17 4,3 -1,3 4,7 Oosten 11,3 1023,2 67 0,30
06:22 4,3 -1,3 11,1 ONO 11,3 1023,2 67 0,30
06:27 4,3 -1,3 7,9 OZO 14,5 1023,2 67 -
06:32 4,2 -1,4 1,4 Oosten 16,1 1023,2 67 -
06:37 4,2 -1,4 3,2 ZZO 14,5 1023,2 67 -
06:42 4,2 -1,2 6,4 Oosten 9,7 1023,2 68 -
06:47 4,2 -1,2 11,1 NO 14,5 1023,2 68 -
06:52 4,2 -1,2 4,7 Oosten 9,7 1023,2 68 -
06:57 4,2 -1,2 3,2 Oosten 12,9 1023,2 68 -
07:02 4,2 -1,2 16,3 ONO 16,1 1023,2 68 -
07:07 4,2 -1,2 7,9 NO 9,7 1023,2 68 -
07:12 4,2 -1,2 7,9 ONO 14,5 1023,6 68 -
07:17 4,2 -1,2 9,7 Oosten 14,5 1023,6 68 -
07:22 4,2 -1,2 7,9 NO 11,3 1023,6 68 -
07:27 4,2 -1,2 3,2 ZO 11,3 1023,6 68 -
07:33 4,2 -1,2 7,9 Oosten 14,5 1023,9 68 -
07:38 4,3 -1,1 7,9 NO 11,3 1023,9 68 -
07:43 4,3 -1,1 9,7 ONO 14,5 1023,9 68 -
07:48 4,3 -1,1 13,0 Oosten 16,1 1023,9 68 -
07:53 4,3 -1,1 3,2 NNO 17,7 1023,9 68 -
07:58 4,3 -1,1 13,0 Oosten 17,7 1023,9 68 -
08:03 4,4 -1,0 7,9 NO 12,9 1023,9 68 -
08:08 4,4 -1,0 3,2 ONO 11,3 1023,9 68 -
08:13 4,3 -1,1 11,1 ONO 17,7 1023,9 68 -
08:18 4,4 -1,0 4,7 OZO 12,9 1024,3 68 -
08:23 4,3 -1,1 6,4 NO 9,7 1024,3 68 -
08:28 4,3 -1,1 6,4 ONO 11,3 1024,3 68 -
08:33 4,3 -1,1 6,4 ONO 16,1 1024,6 68 -
08:38 4,2 -1,2 1,4 Zuiden 11,3 1024,6 68 -
08:43 4,2 -1,2 3,2 ZO 11,3 1024,6 68 -
08:48 4,2 -1,2 6,4 OZO 9,7 1024,9 68 -
08:53 4,2 -1,2 6,4 Oosten 12,9 1024,9 68 -
08:58 4,2 -1,2 6,4 ZZO 11,3 1024,9 68 -
09:03 4,2 -1,2 13,0 ONO 12,9 1024,9 68 -
09:08 4,1 -1,3 9,7 Oosten 14,5 1024,9 68 -
09:13 4,1 -1,3 7,9 NO 8,0 1024,9 68 -
09:18 4,1 -1,3 6,4 ONO 12,9 1024,9 68 -
09:23 4,0 -1,4 7,9 ONO 12,9 1024,9 68 -
09:28 4,0 -1,2 3,2 ONO 11,3 1024,9 69 -
09:33 3,9 -1,3 4,7 OZO 12,9 1025,3 69 -
09:38 3,9 -1,3 4,7 OZO 11,3 1025,3 69 -
09:43 3,9 -1,3 13,0 ONO 12,9 1025,3 69 -
09:48 3,9 -1,3 9,7 Oosten 11,3 1025,3 69 -
09:53 4,0 -1,2 6,4 Oosten 11,3 1025,6 69 -
09:58 4,0 -1,2 4,7 ZZO 12,9 1025,6 69 -
10:03 4,0 -1,2 6,4 OZO 9,7 1025,6 69 -
10:09 4,1 -1,1 6,4 ZO 14,5 1025,6 69 -
10:14 4,1 -1,1 9,7 ONO 11,3 1025,6 69 -
10:19 4,2 -1,0 7,9 NO 11,3 1026,0 69 -
10:24 4,2 -1,0 4,7 ZO 16,1 1026,0 69 -
10:29 4,4 -1,0 3,2 Oosten 8,0 1026,0 68 -
10:34 4,7 -0,7 3,2 OZO 9,7 1026,0 68 -
10:39 4,9 -0,5 6,4 Oosten 12,9 1026,0 68 -
10:44 5,1 -0,5 1,4 ONO 8,0 1026,0 67 -
10:49 5,1 -0,7 3,2 ZZO 9,7 1026,0 66 -
10:54 5,2 -0,6 7,9 ZZO 8,0 1026,3 66 -
10:59 5,3 -0,5 1,4 OZO 6,4 1026,3 66 -
11:04 5,5 -0,3 7,9 ONO 8,0 1026,3 66 -
11:09 5,6 -0,5 3,2 Oosten 11,3 1026,3 65 -
11:14 5,7 -0,4 3,2 ZO 6,4 1026,3 65 -
11:19 5,8 -0,3 6,4 ZO 11,3 1026,3 65 -
11:24 5,9 -0,4 3,2 ZO 14,5 1026,3 64 -
11:29 6,0 -0,3 3,2 Oosten 8,0 1026,3 64 -
11:34 6,0 -0,3 4,7 OZO 9,7 1026,3 64 -
11:39 6,0 -0,3 11,1 ZO 11,3 1026,6 64 -
11:44 6,1 -0,2 7,9 ZO 9,7 1026,3 64 -
11:49 6,1 -0,2 3,2 ZO 9,7 1026,6 64 -
11:55 6,3 -0,2 6,4 ZZO 9,7 1026,3 63 -
12:00 6,4 -0,1 4,7 ZO 4,8 1026,6 63 -
12:05 6,6 0,1 7,9 ZZW 9,7 1026,6 63 -
12:10 6,7 -0,1 6,4 Zuiden 9,7 1026,6 62 -
12:15 6,7 -0,1 7,9 ZO 12,9 1026,3 62 -
12:20 6,8 -0,2 6,4 ZZO 12,9 1026,6 61 -
12:25 6,8 -0,2 6,4 ZO 16,1 1026,6 61 -
12:30 6,9 -0,3 14,3 OZO 17,7 1026,3 60 -
12:35 7,0 -0,2 6,4 ZO 11,3 1026,3 60 -
12:40 6,9 -0,3 9,7 OZO 19,3 1026,3 60 -
12:45 7,2 0,0 6,4 Oosten 12,9 1026,6 60 -
12:50 7,3 0,0 7,9 NO 12,9 1026,6 60 -
12:56 7,3 -0,4 9,7 ONO 16,1 1026,6 58 -
13:01 7,3 -0,2 6,4 ZZO 11,3 1026,6 59 -
13:06 7,2 -0,3 4,7 OZO 12,9 1026,6 59 -
13:11 7,4 -0,3 1,4 ZO 12,9 1026,3 58 -
13:16 7,4 -0,6 9,7 ZZO 22,5 1026,3 57 -
13:21 7,2 -0,8 7,9 ONO 19,3 1026,3 57 -
13:26 7,2 -0,5 11,1 OZO 14,5 1026,3 58 -
13:31 7,1 -0,6 6,4 ZO 16,1 1026,6 58 -
13:36 7,1 -0,6 3,2 ZZO 12,9 1026,6 58 -
13:41 7,1 -1,1 14,3 ZO 19,3 1026,6 56 -
13:46 7,3 -1,4 6,4 ZZO 16,1 1026,6 54 -
13:51 7,1 -1,3 9,7 ZZO 16,1 1026,6 55 -
13:56 7,2 -1,2 14,3 ZZO 14,5 1026,6 55 -
14:01 7,2 -1,7 4,7 ZO 17,7 1026,6 53 -
14:06 7,0 -1,7 7,9 ZZO 14,5 1026,6 54 -
14:11 6,8 -1,4 4,7 ZO 14,5 1026,6 56 -
14:16 6,9 -1,3 4,7 ZZO 11,3 1026,6 56 -
14:21 7,4 -0,8 11,1 OZO 14,5 1026,6 56 -
14:26 7,6 -0,9 6,4 OZO 17,7 1026,6 55 -
14:31 7,6 -0,9 4,7 ZZO 14,5 1026,6 55 -
14:36 7,6 -0,9 11,1 ZZO 14,5 1026,6 55 -
14:41 7,3 -0,9 4,7 ZZO 12,9 1026,6 56 -
14:46 7,3 -0,9 3,2 Zuiden 12,9 1026,6 56 -
14:51 7,4 -0,8 7,9 ZO 12,9 1026,6 56 -
14:56 7,3 -0,9 4,7 ZO 11,3 1027,0 56 -
15:01 7,2 -1,0 14,3 Zuiden 14,5 1027,0 56 -
15:06 7,2 -1,0 16,3 Oosten 16,1 1027,0 56 -
15:11 7,4 -0,8 6,4 ZZO 9,7 1027,0 56 -
15:17 7,6 -0,9 13,0 ZZO 12,9 1027,0 55 -
15:22 7,4 -1,3 13,0 ZZO 14,5 1027,0 54 -
15:27 7,5 -1,0 6,4 ZZO 9,7 1027,0 55 -
15:32 7,4 -1,1 13,0 ZO 14,5 1027,3 55 -
15:37 7,2 -1,2 7,9 ZO 8,0 1027,3 55 -
15:42 7,1 -1,3 6,4 ZO 12,9 1027,3 55 -
15:47 6,9 -1,3 4,7 ZO 11,3 1027,3 56 -
15:52 6,8 -1,4 11,1 ZO 12,9 1027,3 56 -
15:57 6,7 -1,2 6,4 ZZO 11,3 1027,3 57 -
16:02 6,6 -1,3 4,7 ZO 8,0 1027,3 57 -
16:07 6,4 -1,5 6,4 ZO 12,9 1027,3 57 -
16:13 6,3 -1,4 3,2 ZO 6,4 1027,3 58 -
16:18 6,3 -1,4 3,2 ZZO 8,0 1027,7 58 -
16:23 6,2 -1,2 3,2 ZO 3,2 1027,7 59 -
16:28 6,1 -1,3 3,2 ZO 8,0 1027,7 59 -
16:33 5,9 -1,5 3,2 OZO 9,7 1027,7 59 -
16:38 5,9 -1,5 3,2 ZO 9,7 1027,7 59 -
16:43 5,8 -1,6 3,2 ZZO 6,4 1028,0 59 -
16:48 5,7 -1,7 3,2 OZO 4,8 1028,0 59 -
16:53 5,4 -2,0 3,2 ZO 3,2 1028,0 59 -
16:58 5,3 -1,8 1,4 ZO 4,8 1028,0 60 -
17:03 5,1 -2,0   Kalm 4,8 1028,0 60 -
17:08 5,1 -2,0   Kalm 3,2 1028,3 60 -
17:13 5,1 -2,0 3,2 ZO 4,8 1028,3 60 -
17:19 4,9 -2,2   Kalm 6,4 1028,3 60 -
17:24 4,9 -2,2   Kalm 1,6 1028,3 60 -
17:29 4,8 -2,3 1,4 ZZO 4,8 1028,3 60 -
17:34 4,7 -2,4 3,2 ZZO 4,8 1028,3 60 -
17:39 4,7 -2,4 1,4 ZZO 4,8 1028,7 60 -
17:44 4,7 -2,2 3,2 ZZO 4,8 1028,7 61 -
17:49 4,6 -2,3 1,4 ZZO 3,2 1029,0 61 -
17:54 4,6 -2,3 3,2 ZZO 6,4 1029,0 61 -
18:00 4,6 -2,3 1,4 ZO 4,8 1029,0 61 -
18:05 4,3 -2,3   Kalm 3,2 1029,0 62 -
18:10 4,3 -2,3 4,7 ZO 6,4 1029,3 62 -
18:15 4,3 -2,3 1,4 ZZO 8,0 1029,0 62 -
18:20 4,3 -2,3 3,2 ZZO 4,8 1029,0 62 -
18:25 4,3 -2,3 3,2 ZO 6,4 1029,3 62 -
18:30 4,3 -2,1   Kalm 6,4 1029,3 63 -
18:35 4,1 -2,3   Kalm 3,2 1029,3 63 -
18:40 3,7 -2,5   Kalm 3,2 1029,3 64 -
18:45 3,5 -2,7   Kalm 1,6 1029,3 64 -
18:51 3,4 -2,6 1,4 ZZO 1,6 1029,7 65 -
18:56 3,4 -2,6 1,4 ZZO 1,6 1029,7 65 -
19:01 3,4 -2,6 3,2 ZZO 4,8 1029,7 65 -
19:06 3,3 -2,7 3,2 ZZO 3,2 1030,0 65 -
19:11 3,3 -2,7 3,2 ZZO 6,4 1030,0 65 -
19:16 3,6 -2,2 4,7 ZO 6,4 1030,0 66 -
19:21 3,7 -2,3 6,4 ZO 8,0 1030,0 65 -
19:26 3,7 -2,3 1,4 ZO 6,4 1030,0 65 -
19:31 3,6 -2,4   Kalm 4,8 1030,0 65 -
19:36 3,3 -2,7   Kalm 3,2 1030,4 65 -
19:41 3,1 -2,6   Kalm 3,2 1030,4 66 -
19:47 3,0 -2,7 1,4 ZO 4,8 1030,4 66 -
19:52 3,1 -2,6 4,7 ZO 4,8 1030,4 66 -
19:57 2,9 -2,6 1,4 ZO 3,2 1030,4 67 -
20:02 2,9 -2,6 3,2 ZO 3,2 1030,4 67 -
20:07 2,7 -2,8 1,4 ZO 1,6 1030,4 67 -
20:12 2,7 -2,8   Kalm 1,6 1030,4 67 -
20:17 2,5 -2,8   Kalm   1030,4 68 -
20:22 2,5 -2,8   Kalm   1030,4 68 -
20:27 2,6 -2,7   Kalm 1,6 1030,4 68 -
20:33 2,6 -2,7   Kalm   1030,7 68 -
20:38 2,6 -2,7   Kalm   1030,7 68 -
20:43 2,5 -2,8   Kalm 1,6 1030,7 68 -
20:48 2,5 -2,8   Kalm   1030,7 68 -
20:53 2,4 -2,7   Kalm 1,6 1030,7 69 -
20:58 2,5 -2,6   Kalm 3,2 1030,7 69 -
21:03 2,5 -2,6 1,4 ZO 1,6 1030,7 69 -
21:08 2,6 -2,5   Kalm 1,6 1031,0 69 -
21:14 2,6 -2,5   Kalm 1,6 1031,0 69 -
21:19 2,6 -2,5 1,4 ZO 1,6 1031,0 69 -
21:24 2,8 -2,5 1,4 ZO 3,2 1031,0 68 -
21:29 2,8 -2,5 1,4 ZO 4,8 1031,0 68 -
21:34 2,8 -2,5 1,4 ZO 3,2 1031,0 68 -
21:39 2,9 -2,4 1,4 ZZO 4,8 1031,0 68 -
21:44 2,9 -2,4 3,2 ZO 4,8 1031,0 68 -
21:49 2,9 -2,4 3,2 ZO 6,4 1031,0 68 -
21:54 2,9 -2,4 1,4 ZO 3,2 1031,0 68 -
21:59 2,9 -2,4 1,4 ZO 3,2 1031,0 68 -
22:04 2,8 -2,5   Kalm 3,2 1031,4 68 -
22:09 2,8 -2,5   Kalm 1,6 1031,4 68 -
22:14 2,7 -2,6   Kalm 1,6 1031,4 68 -
22:19 2,7 -2,6   Kalm 3,2 1031,4 68 -
22:25 2,6 -2,7 1,4 ZO 3,2 1031,4 68 -
22:30 2,7 -2,4 3,2 ZO 3,2 1031,4 69 -
22:35 2,7 -2,6 1,4 ZO 1,6 1031,7 68 -
22:40 2,7 -2,6 1,4 ZO 3,2 1031,7 68 -
22:45 2,6 -2,5 3,2 ZO 4,8 1031,4 69 -
22:50 2,7 -2,4 3,2 ZZO 4,8 1031,4 69 -
22:55 2,7 -2,4 3,2 ZZO 4,8 1031,4 69 -
23:00 2,6 -2,5 3,2 ZO 4,8 1031,7 69 -
23:05 2,5 -2,6 1,4 ZO 4,8 1031,7 69 -
23:10 2,5 -2,6 3,2 ZZO 4,8 1031,7 69 -
23:15 2,5 -2,6 3,2 ZO 4,8 1031,7 69 -
23:20 2,4 -2,7 1,4 ZO 3,2 1031,7 69 -
23:25 2,4 -2,7 1,4 ZO 4,8 1031,7 69 -
23:30 2,4 -2,7 3,2 ZZO 4,8 1031,7 69 -
23:35 2,3 -2,8   Kalm 1,6 1031,7 69 -
23:40 2,2 -2,9   Kalm 1,6 1032,1 69 -
23:45 2,2 -2,7 1,4 ZZO 3,2 1032,1 70 -
Dagelijkse Samenvatting Zaterdag 18 januari 2020
Tijd Temp. ( °C ) Dew pt. ( °C ) Wind ( km/h ) van Windvlaag ( km/h ) Luchtdruk ( hPa ) Humid.( % ) Rainrate ( cm )
Hoog7,6 0,1 17,7 ONO ( 605/1660 ) 22,5 1032,1 70 0,30
Gemiddeld4,6 -1,5 5,9 ZO #66/282 10,3 1026,2 65 0,60
Laag2,2 -2,9 -   0,0 1021,2 53 -
Dagelijkse Tabular details for Zaterdag 18 januari 2020
Tijd Temp. ( °C ) Dew pt. ( °C ) Wind ( km/h ) van Windvlaag ( km/h ) Luchtdruk ( hPa ) Humid.( % ) Rainrate ( cm )
00:05 5,2 -0,6 7,9 ONO 14,5 1021,6 66 -
00:10 5,2 -0,6 6,4 ONO 16,1 1021,6 66 -
00:15 5,2 -0,6 7,9 ONO 14,5 1021,2 66 -
00:20 5,2 -0,6 7,9 Oosten 14,5 1021,6 66 -
00:25 5,1 -0,7 11,1 NO 11,3 1021,6 66 -
00:30 5,1 -0,7 3,2 ONO 14,5 1021,6 66 -
00:35 5,0 -1,0 7,9 Oosten 14,5 1021,6 65 -
00:40 4,9 -1,1 13,0 ONO 16,1 1021,6 65 -
00:45 4,9 -1,1 6,4 ONO 9,7 1021,6 65 -
00:50 4,9 -1,1 9,7 Oosten 12,9 1021,9 65 -
00:55 4,8 -1,2 11,1 ONO 16,1 1021,9 65 -
01:00 4,8 -1,2 4,7 Oosten 12,9 1021,9 65 -
01:05 4,8 -1,2 11,1 ONO 14,5 1021,9 65 -
01:10 4,8 -1,2 4,7 Oosten 11,3 1021,9 65 -
01:15 4,8 -1,2 3,2 Oosten 12,9 1021,9 65 -
01:20 4,8 -1,2 9,7 ONO 14,5 1021,9 65 -
01:25 4,7 -1,3 6,4 Oosten 16,1 1022,2 65 -
01:30 4,7 -1,3 11,1 NO 12,9 1022,2 65 -
01:35 4,7 -1,3 13,0 ONO 12,9 1021,9 65 -
01:40 4,6 -1,4 13,0 ONO 17,7 1022,2 65 -
01:45 4,6 -1,4 17,7 ONO 17,7 1022,2 65 -
01:50 4,6 -1,4 7,9 ONO 16,1 1022,2 65 -
01:55 4,6 -1,4 7,9 ONO 12,9 1022,2 65 -
02:00 4,6 -1,4 7,9 ONO 19,3 1022,2 65 -
02:05 4,5 -1,5 13,0 ONO 12,9 1022,2 65 -
02:10 4,5 -1,5 9,7 ONO 16,1 1022,2 65 -
02:15 4,4 -1,6 9,7 ONO 14,5 1022,2 65 -
02:20 4,4 -1,6 3,2 NO 14,5 1022,2 65 -
02:26 4,3 -1,7 14,3 ONO 17,7 1022,2 65 -
02:31 4,3 -1,5 9,7 ONO 17,7 1022,2 66 -
02:36 4,3 -1,5 7,9 ONO 17,7 1022,2 66 -
02:41 4,3 -1,5 6,4 ONO 12,9 1022,2 66 -
02:46 4,2 -1,6 13,0 ONO 16,1 1022,6 66 -
02:51 4,2 -1,6 11,1 Oosten 19,3 1022,6 66 -
02:56 4,2 -1,6 13,0 Oosten 17,7 1022,6 66 -
03:01 4,2 -1,6 14,3 ONO 20,9 1022,6 66 -
03:06 4,1 -1,5 7,9 ONO 16,1 1022,6 67 -
03:11 4,1 -1,7 11,1 Oosten 17,7 1022,6 66 -
03:16 4,0 -1,6 11,1 ONO 11,3 1022,6 67 -
03:21 4,0 -1,6 3,2 NO 17,7 1022,6 67 -
03:26 3,9 -1,7 6,4 ONO 9,7 1022,6 67 -
03:31 3,9 -1,7 14,3 ONO 14,5 1022,6 67 -
03:36 3,9 -1,7 7,9 NO 12,9 1022,6 67 -
03:41 3,9 -1,7 7,9 ONO 16,1 1022,9 67 -
03:46 3,8 -1,8 7,9 Oosten 17,7 1022,9 67 -
03:51 3,8 -1,8 6,4 Oosten 16,1 1022,9 67 -
03:56 3,8 -1,8 7,9 ONO 8,0 1022,9 67 -
04:01 3,8 -1,8 9,7 ONO 9,7 1022,9 67 -
04:06 3,8 -1,8 11,1 ONO 14,5 1022,9 67 -
04:11 3,8 -1,8 6,4 NO 16,1 1022,6 67 -
04:16 3,8 -1,8 9,7 NO 11,3 1022,9 67 -
04:21 3,9 -1,7 13,0 ONO 17,7 1022,9 67 -
04:26 3,9 -1,7 6,4 Oosten 11,3 1022,9 67 -
04:31 3,9 -1,7 7,9 ONO 12,9 1022,9 67 -
04:36 3,9 -1,7 7,9 ONO 9,7 1022,9 67 -
04:41 3,9 -1,5 3,2 ONO 12,9 1022,9 68 -
04:46 4,0 -1,6 11,1 ONO 11,3 1022,9 67 -
04:51 4,1 -1,5 7,9 ONO 16,1 1022,9 67 -
04:56 4,1 -1,5 6,4 ONO 12,9 1022,9 67 -
05:01 4,2 -1,4 9,7 ONO 12,9 1022,9 67 -
05:07 4,2 -1,4 14,3 ONO 14,5 1022,9 67 -
05:12 4,2 -1,4 6,4 ONO 11,3 1022,9 67 -
05:17 4,3 -1,3 14,3 Oosten 14,5 1022,9 67 -
05:22 4,3 -1,3 7,9 NO 12,9 1022,9 67 -
05:27 4,3 -1,3 7,9 ONO 12,9 1022,9 67 0,30
05:32 4,4 -1,0 11,1 NO 14,5 1023,2 68 0,30
05:37 4,3 -1,1 9,7 Oosten 14,5 1023,2 68 0,30
05:42 4,4 -1,0 11,1 ONO 14,5 1023,2 68 0,30
05:47 4,4 -1,0 6,4 ZO 12,9 1023,2 68 0,30
05:52 4,4 -1,2 7,9 NO 12,9 1023,2 67 0,30
05:57 4,4 -1,2 6,4 ZZO 11,3 1023,2 67 0,30
06:02 4,4 -1,2 9,7 ONO 17,7 1023,2 67 0,30
06:07 4,4 -1,2 6,4 ONO 11,3 1023,2 67 0,30
06:12 4,3 -1,3 11,1 ONO 12,9 1023,2 67 0,30
06:17 4,3 -1,3 4,7 Oosten 11,3 1023,2 67 0,30
06:22 4,3 -1,3 11,1 ONO 11,3 1023,2 67 0,30
06:27 4,3 -1,3 7,9 OZO 14,5 1023,2 67 -
06:32 4,2 -1,4 1,4 Oosten 16,1 1023,2 67 -
06:37 4,2 -1,4 3,2 ZZO 14,5 1023,2 67 -
06:42 4,2 -1,2 6,4 Oosten 9,7 1023,2 68 -
06:47 4,2 -1,2 11,1 NO 14,5 1023,2 68 -
06:52 4,2 -1,2 4,7 Oosten 9,7 1023,2 68 -
06:57 4,2 -1,2 3,2 Oosten 12,9 1023,2 68 -
07:02 4,2 -1,2 16,3 ONO 16,1 1023,2 68 -
07:07 4,2 -1,2 7,9 NO 9,7 1023,2 68 -
07:12 4,2 -1,2 7,9 ONO 14,5 1023,6 68 -
07:17 4,2 -1,2 9,7 Oosten 14,5 1023,6 68 -
07:22 4,2 -1,2 7,9 NO 11,3 1023,6 68 -
07:27 4,2 -1,2 3,2 ZO 11,3 1023,6 68 -
07:33 4,2 -1,2 7,9 Oosten 14,5 1023,9 68 -
07:38 4,3 -1,1 7,9 NO 11,3 1023,9 68 -
07:43 4,3 -1,1 9,7 ONO 14,5 1023,9 68 -
07:48 4,3 -1,1 13,0 Oosten 16,1 1023,9 68 -
07:53 4,3 -1,1 3,2 NNO 17,7 1023,9 68 -
07:58 4,3 -1,1 13,0 Oosten 17,7 1023,9 68 -
08:03 4,4 -1,0 7,9 NO 12,9 1023,9 68 -
08:08 4,4 -1,0 3,2 ONO 11,3 1023,9 68 -
08:13 4,3 -1,1 11,1 ONO 17,7 1023,9 68 -
08:18 4,4 -1,0 4,7 OZO 12,9 1024,3 68 -
08:23 4,3 -1,1 6,4 NO 9,7 1024,3 68 -
08:28 4,3 -1,1 6,4 ONO 11,3 1024,3 68 -
08:33 4,3 -1,1 6,4 ONO 16,1 1024,6 68 -
08:38 4,2 -1,2 1,4 Zuiden 11,3 1024,6 68 -
08:43 4,2 -1,2 3,2 ZO 11,3 1024,6 68 -
08:48 4,2 -1,2 6,4 OZO 9,7 1024,9 68 -
08:53 4,2 -1,2 6,4 Oosten 12,9 1024,9 68 -
08:58 4,2 -1,2 6,4 ZZO 11,3 1024,9 68 -
09:03 4,2 -1,2 13,0 ONO 12,9 1024,9 68 -
09:08 4,1 -1,3 9,7 Oosten 14,5 1024,9 68 -
09:13 4,1 -1,3 7,9 NO 8,0 1024,9 68 -
09:18 4,1 -1,3 6,4 ONO 12,9 1024,9 68 -
09:23 4,0 -1,4 7,9 ONO 12,9 1024,9 68 -
09:28 4,0 -1,2 3,2 ONO 11,3 1024,9 69 -
09:33 3,9 -1,3 4,7 OZO 12,9 1025,3 69 -
09:38 3,9 -1,3 4,7 OZO 11,3 1025,3 69 -
09:43 3,9 -1,3 13,0 ONO 12,9 1025,3 69 -
09:48 3,9 -1,3 9,7 Oosten 11,3 1025,3 69 -
09:53 4,0 -1,2 6,4 Oosten 11,3 1025,6 69 -
09:58 4,0 -1,2 4,7 ZZO 12,9 1025,6 69 -
10:03 4,0 -1,2 6,4 OZO 9,7 1025,6 69 -
10:09 4,1 -1,1 6,4 ZO 14,5 1025,6 69 -
10:14 4,1 -1,1 9,7 ONO 11,3 1025,6 69 -
10:19 4,2 -1,0 7,9 NO 11,3 1026,0 69 -
10:24 4,2 -1,0 4,7 ZO 16,1 1026,0 69 -
10:29 4,4 -1,0 3,2 Oosten 8,0 1026,0 68 -
10:34 4,7 -0,7 3,2 OZO 9,7 1026,0 68 -
10:39 4,9 -0,5 6,4 Oosten 12,9 1026,0 68 -
10:44 5,1 -0,5 1,4 ONO 8,0 1026,0 67 -
10:49 5,1 -0,7 3,2 ZZO 9,7 1026,0 66 -
10:54 5,2 -0,6 7,9 ZZO 8,0 1026,3 66 -
10:59 5,3 -0,5 1,4 OZO 6,4 1026,3 66 -
11:04 5,5 -0,3 7,9 ONO 8,0 1026,3 66 -
11:09 5,6 -0,5 3,2 Oosten 11,3 1026,3 65 -
11:14 5,7 -0,4 3,2 ZO 6,4 1026,3 65 -
11:19 5,8 -0,3 6,4 ZO 11,3 1026,3 65 -
11:24 5,9 -0,4 3,2 ZO 14,5 1026,3 64 -
11:29 6,0 -0,3 3,2 Oosten 8,0 1026,3 64 -
11:34 6,0 -0,3 4,7 OZO 9,7 1026,3 64 -
11:39 6,0 -0,3 11,1 ZO 11,3 1026,6 64 -
11:44 6,1 -0,2 7,9 ZO 9,7 1026,3 64 -
11:49 6,1 -0,2 3,2 ZO 9,7 1026,6 64 -
11:55 6,3 -0,2 6,4 ZZO 9,7 1026,3 63 -
12:00 6,4 -0,1 4,7 ZO 4,8 1026,6 63 -
12:05 6,6 0,1 7,9 ZZW 9,7 1026,6 63 -
12:10 6,7 -0,1 6,4 Zuiden 9,7 1026,6 62 -
12:15 6,7 -0,1 7,9 ZO 12,9 1026,3 62 -
12:20 6,8 -0,2 6,4 ZZO 12,9 1026,6 61 -
12:25 6,8 -0,2 6,4 ZO 16,1 1026,6 61 -
12:30 6,9 -0,3 14,3 OZO 17,7 1026,3 60 -
12:35 7,0 -0,2 6,4 ZO 11,3 1026,3 60 -
12:40 6,9 -0,3 9,7 OZO 19,3 1026,3 60 -
12:45 7,2 0,0 6,4 Oosten 12,9 1026,6 60 -
12:50 7,3 0,0 7,9 NO 12,9 1026,6 60 -
12:56 7,3 -0,4 9,7 ONO 16,1 1026,6 58 -
13:01 7,3 -0,2 6,4 ZZO 11,3 1026,6 59 -
13:06 7,2 -0,3 4,7 OZO 12,9 1026,6 59 -
13:11 7,4 -0,3 1,4 ZO 12,9 1026,3 58 -
13:16 7,4 -0,6 9,7 ZZO 22,5 1026,3 57 -
13:21 7,2 -0,8 7,9 ONO 19,3 1026,3 57 -
13:26 7,2 -0,5 11,1 OZO 14,5 1026,3 58 -
13:31 7,1 -0,6 6,4 ZO 16,1 1026,6 58 -
13:36 7,1 -0,6 3,2 ZZO 12,9 1026,6 58 -
13:41 7,1 -1,1 14,3 ZO 19,3 1026,6 56 -
13:46 7,3 -1,4 6,4 ZZO 16,1 1026,6 54 -
13:51 7,1 -1,3 9,7 ZZO 16,1 1026,6 55 -
13:56 7,2 -1,2 14,3 ZZO 14,5 1026,6 55 -
14:01 7,2 -1,7 4,7 ZO 17,7 1026,6 53 -
14:06 7,0 -1,7 7,9 ZZO 14,5 1026,6 54 -
14:11 6,8 -1,4 4,7 ZO 14,5 1026,6 56 -
14:16 6,9 -1,3 4,7 ZZO 11,3 1026,6 56 -
14:21 7,4 -0,8 11,1 OZO 14,5 1026,6 56 -
14:26 7,6 -0,9 6,4 OZO 17,7 1026,6 55 -
14:31 7,6 -0,9 4,7 ZZO 14,5 1026,6 55 -
14:36 7,6 -0,9 11,1 ZZO 14,5 1026,6 55 -
14:41 7,3 -0,9 4,7 ZZO 12,9 1026,6 56 -
14:46 7,3 -0,9 3,2 Zuiden 12,9 1026,6 56 -
14:51 7,4 -0,8 7,9 ZO 12,9 1026,6 56 -
14:56 7,3 -0,9 4,7 ZO 11,3 1027,0 56 -
15:01 7,2 -1,0 14,3 Zuiden 14,5 1027,0 56 -
15:06 7,2 -1,0 16,3 Oosten 16,1 1027,0 56 -
15:11 7,4 -0,8 6,4 ZZO 9,7 1027,0 56 -
15:17 7,6 -0,9 13,0 ZZO 12,9 1027,0 55 -
15:22 7,4 -1,3 13,0 ZZO 14,5 1027,0 54 -
15:27 7,5 -1,0 6,4 ZZO 9,7 1027,0 55 -
15:32 7,4 -1,1 13,0 ZO 14,5 1027,3 55 -
15:37 7,2 -1,2 7,9 ZO 8,0 1027,3 55 -
15:42 7,1 -1,3 6,4 ZO 12,9 1027,3 55 -
15:47 6,9 -1,3 4,7 ZO 11,3 1027,3 56 -
15:52 6,8 -1,4 11,1 ZO 12,9 1027,3 56 -
15:57 6,7 -1,2 6,4 ZZO 11,3 1027,3 57 -
16:02 6,6 -1,3 4,7 ZO 8,0 1027,3 57 -
16:07 6,4 -1,5 6,4 ZO 12,9 1027,3 57 -
16:13 6,3 -1,4 3,2 ZO 6,4 1027,3 58 -
16:18 6,3 -1,4 3,2 ZZO 8,0 1027,7 58 -
16:23 6,2 -1,2 3,2 ZO 3,2 1027,7 59 -
16:28 6,1 -1,3 3,2 ZO 8,0 1027,7 59 -
16:33 5,9 -1,5 3,2 OZO 9,7 1027,7 59 -
16:38 5,9 -1,5 3,2 ZO 9,7 1027,7 59 -
16:43 5,8 -1,6 3,2 ZZO 6,4 1028,0 59 -
16:48 5,7 -1,7 3,2 OZO 4,8 1028,0 59 -
16:53 5,4 -2,0 3,2 ZO 3,2 1028,0 59 -
16:58 5,3 -1,8 1,4 ZO 4,8 1028,0 60 -
17:03 5,1 -2,0   Kalm 4,8 1028,0 60 -
17:08 5,1 -2,0   Kalm 3,2 1028,3 60 -
17:13 5,1 -2,0 3,2 ZO 4,8 1028,3 60 -
17:19 4,9 -2,2   Kalm 6,4 1028,3 60 -
17:24 4,9 -2,2   Kalm 1,6 1028,3 60 -
17:29 4,8 -2,3 1,4 ZZO 4,8 1028,3 60 -
17:34 4,7 -2,4 3,2 ZZO 4,8 1028,3 60 -
17:39 4,7 -2,4 1,4 ZZO 4,8 1028,7 60 -
17:44 4,7 -2,2 3,2 ZZO 4,8 1028,7 61 -
17:49 4,6 -2,3 1,4 ZZO 3,2 1029,0 61 -
17:54 4,6 -2,3 3,2 ZZO 6,4 1029,0 61 -
18:00 4,6 -2,3 1,4 ZO 4,8 1029,0 61 -
18:05 4,3 -2,3   Kalm 3,2 1029,0 62 -
18:10 4,3 -2,3 4,7 ZO 6,4 1029,3 62 -
18:15 4,3 -2,3 1,4 ZZO 8,0 1029,0 62 -
18:20 4,3 -2,3 3,2 ZZO 4,8 1029,0 62 -
18:25 4,3 -2,3 3,2 ZO 6,4 1029,3 62 -
18:30 4,3 -2,1   Kalm 6,4 1029,3 63 -
18:35 4,1 -2,3   Kalm 3,2 1029,3 63 -
18:40 3,7 -2,5   Kalm 3,2 1029,3 64 -
18:45 3,5 -2,7   Kalm 1,6 1029,3 64 -
18:51 3,4 -2,6 1,4 ZZO 1,6 1029,7 65 -
18:56 3,4 -2,6 1,4 ZZO 1,6 1029,7 65 -
19:01 3,4 -2,6 3,2 ZZO 4,8 1029,7 65 -
19:06 3,3 -2,7 3,2 ZZO 3,2 1030,0 65 -
19:11 3,3 -2,7 3,2 ZZO 6,4 1030,0 65 -
19:16 3,6 -2,2 4,7 ZO 6,4 1030,0 66 -
19:21 3,7 -2,3 6,4 ZO 8,0 1030,0 65 -
19:26 3,7 -2,3 1,4 ZO 6,4 1030,0 65 -
19:31 3,6 -2,4   Kalm 4,8 1030,0 65 -
19:36 3,3 -2,7   Kalm 3,2 1030,4 65 -
19:41 3,1 -2,6   Kalm 3,2 1030,4 66 -
19:47 3,0 -2,7 1,4 ZO 4,8 1030,4 66 -
19:52 3,1 -2,6 4,7 ZO 4,8 1030,4 66 -
19:57 2,9 -2,6 1,4 ZO 3,2 1030,4 67 -
20:02 2,9 -2,6 3,2 ZO 3,2 1030,4 67 -
20:07 2,7 -2,8 1,4 ZO 1,6 1030,4 67 -
20:12 2,7 -2,8   Kalm 1,6 1030,4 67 -
20:17 2,5 -2,8   Kalm   1030,4 68 -
20:22 2,5 -2,8   Kalm   1030,4 68 -
20:27 2,6 -2,7   Kalm 1,6 1030,4 68 -
20:33 2,6 -2,7   Kalm   1030,7 68 -
20:38 2,6 -2,7   Kalm   1030,7 68 -
20:43 2,5 -2,8   Kalm 1,6 1030,7 68 -
20:48 2,5 -2,8   Kalm   1030,7 68 -
20:53 2,4 -2,7   Kalm 1,6 1030,7 69 -
20:58 2,5 -2,6   Kalm 3,2 1030,7 69 -
21:03 2,5 -2,6 1,4 ZO 1,6 1030,7 69 -
21:08 2,6 -2,5   Kalm 1,6 1031,0 69 -
21:14 2,6 -2,5   Kalm 1,6 1031,0 69 -
21:19 2,6 -2,5 1,4 ZO 1,6 1031,0 69 -
21:24 2,8 -2,5 1,4 ZO 3,2 1031,0 68 -
21:29 2,8 -2,5 1,4 ZO 4,8 1031,0 68 -
21:34 2,8 -2,5 1,4 ZO 3,2 1031,0 68 -
21:39 2,9 -2,4 1,4 ZZO 4,8 1031,0 68 -
21:44 2,9 -2,4 3,2 ZO 4,8 1031,0 68 -
21:49 2,9 -2,4 3,2 ZO 6,4 1031,0 68 -
21:54 2,9 -2,4 1,4 ZO 3,2 1031,0 68 -
21:59 2,9 -2,4 1,4 ZO 3,2 1031,0 68 -
22:04 2,8 -2,5   Kalm 3,2 1031,4 68 -
22:09 2,8 -2,5   Kalm 1,6 1031,4 68 -
22:14 2,7 -2,6   Kalm 1,6 1031,4 68 -
22:19 2,7 -2,6   Kalm 3,2 1031,4 68 -
22:25 2,6 -2,7 1,4 ZO 3,2 1031,4 68 -
22:30 2,7 -2,4 3,2 ZO 3,2 1031,4 69 -
22:35 2,7 -2,6 1,4 ZO 1,6 1031,7 68 -
22:40 2,7 -2,6 1,4 ZO 3,2 1031,7 68 -
22:45 2,6 -2,5 3,2 ZO 4,8 1031,4 69 -
22:50 2,7 -2,4 3,2 ZZO 4,8 1031,4 69 -
22:55 2,7 -2,4 3,2 ZZO 4,8 1031,4 69 -
23:00 2,6 -2,5 3,2 ZO 4,8 1031,7 69 -
23:05 2,5 -2,6 1,4 ZO 4,8 1031,7 69 -
23:10 2,5 -2,6 3,2 ZZO 4,8 1031,7 69 -
23:15 2,5 -2,6 3,2 ZO 4,8 1031,7 69 -
23:20 2,4 -2,7 1,4 ZO 3,2 1031,7 69 -
23:25 2,4 -2,7 1,4 ZO 4,8 1031,7 69 -
23:30 2,4 -2,7 3,2 ZZO 4,8 1031,7 69 -
23:35 2,3 -2,8   Kalm 1,6 1031,7 69 -
23:40 2,2 -2,9   Kalm 1,6 1032,1 69 -
23:45 2,2 -2,7 1,4 ZZO 3,2 1032,1 70 -

Download your copy of this data-set  here

Our weather-data as stored at Weather Underground. Script ontwikkeld door Jim McMurry. Aangepast voor de template door Leuven-Template.eu

U vindt ons ook hier:

Het Weer Aktueel

European Weather Network

Weather Underground

Apparatuur in gebruik:

Weerstation
Oregon WMR 200

Webleverancier
one.com

Oregon WMR 200

one.com